owner,sensor,date,latitude,longitude,vertical_datum,wind_speed,wind_to_direction,wind_speed_of_gust,qcFlag 
ADCP,ioos:station:NOAA.NDBC:WDEL1:1,2012-04-01T00:30:00Z,28.6620,-89.5510,41.0,0.4,262.0,99.0,'11111222,11111222,11144222' 
ADCP,ioos:station:NOAA.NDBC:WDEL1:1,2012-04-01T01:30:00Z,28.6620,-89.5510,41.0,0.8,217.0,99.0,'11111222,11111222,11144222' 
ADCP,ioos:station:NOAA.NDBC:WDEL1:1,2012-04-01T02:30:00Z,28.6620,-89.5510,41.0,0.7,224.0,99.0,'11111222,11111222,11144222' 
ADCP,ioos:station:NOAA.NDBC:WDEL1:1,2012-04-01T03:30:00Z,28.6620,-89.5510,41.0,0.7,218.0,99.0,'11111222,11111222,11144222' 
ADCP,ioos:station:NOAA.NDBC:WDEL1:1,2012-04-01T04:30:00Z,28.6620,-89.5510,41.0,0.6,227.0,99.0,'11111222,11111222,11144222' 
ADCP,ioos:station:NOAA.NDBC:WDEL1:1,2012-04-01T05:30:00Z,28.6620,-89.5510,41.0,0.4,321.0,99.0,'11111222,11111222,11144222' 
ADCP,ioos:station:NOAA.NDBC:WDEL1:1,2012-04-01T06:30:00Z,28.6620,-89.5510,41.0,0.4,74.0,99.0,'11111222,11111222,11144222' 
ADCP,ioos:station:NOAA.NDBC:WDEL1:1,2012-04-01T07:30:00Z,28.6620,-89.5510,41.0,0.9,158.0,99.0,'11111222,11111222,11144222' 
ADCP,ioos:station:NOAA.NDBC:WDEL1:1,2012-04-01T08:30:00Z,28.6620,-89.5510,41.0,0.3,309.0,99.0,'11111222,11111222,11144222' 
ADCP,ioos:station:NOAA.NDBC:WDEL1:1,2012-04-01T09:30:00Z,28.6620,-89.5510,41.0,0.5,360.0,99.0,'11111222,11144222,11144222' 
ADCP,ioos:station:NOAA.NDBC:WDEL1:1,2012-04-01T10:30:00Z,28.6620,-89.5510,41.0,0.7,351.0,99.0,'11111222,11111222,11144222' 
ADCP,ioos:station:NOAA.NDBC:WDEL1:1,2012-04-01T11:30:00Z,28.6620,-89.5510,41.0,0.6,355.0,99.0,'11111222,11111222,11144222' 
ADCP,ioos:station:NOAA.NDBC:WDEL1:1,2012-04-01T12:30:00Z,28.6620,-89.5510,41.0,0.7,356.0,99.0,'11111222,11111222,11144222' 
ADCP,ioos:station:NOAA.NDBC:WDEL1:1,2012-04-01T13:30:00Z,28.6620,-89.5510,41.0,0.6,347.0,99.0,'11111222,11111222,11144222' 
ADCP,ioos:station:NOAA.NDBC:WDEL1:1,2012-04-01T14:30:00Z,28.6620,-89.5510,41.0,0.2,294.0,99.0,'11111222,11111222,11144222' 
ADCP,ioos:station:NOAA.NDBC:WDEL1:1,2012-04-01T15:30:00Z,28.6620,-89.5510,41.0,0.2,13.0,99.0,'11111222,11111222,11144222' 
ADCP,ioos:station:NOAA.NDBC:WDEL1:1,2012-04-01T16:30:00Z,28.6620,-89.5510,41.0,0.3,346.0,99.0,'11111222,11111222,11144222' 
ADCP,ioos:station:NOAA.NDBC:WDEL1:1,2012-04-01T17:30:00Z,28.6620,-89.5510,41.0,1.1,161.0,99.0,'11111222,11111222,11144222' 
ADCP,ioos:station:NOAA.NDBC:WDEL1:1,2012-04-01T18:30:00Z,28.6620,-89.5510,41.0,0.6,206.0,99.0,'11111222,11111222,11144222' 
ADCP,ioos:station:NOAA.NDBC:WDEL1:1,2012-04-01T19:30:00Z,28.6620,-89.5510,41.0,1.2,157.0,99.0,'11111222,11111222,11144222' 
ADCP,ioos:station:NOAA.NDBC:WDEL1:1,2012-04-01T20:30:00Z,28.6620,-89.5510,41.0,0.9,172.0,99.0,'11111222,11111222,11144222' 
ADCP,ioos:station:NOAA.NDBC:WDEL1:1,2012-04-01T21:30:00Z,28.6620,-89.5510,41.0,1.3,166.0,99.0,'11111222,11111222,11144222' 
ADCP,ioos:station:NOAA.NDBC:WDEL1:1,2012-04-01T22:30:00Z,28.6620,-89.5510,41.0,1.8,161.0,99.0,'11111222,11111222,11144222' 
ADCP,ioos:station:NOAA.NDBC:WDEL1:1,2012-04-01T23:30:00Z,28.6620,-89.5510,41.0,1.1,209.0,99.0,'11111222,11111222,11144222' 
ADCP,ioos:station:NOAA.NDBC:WDEL1:1,2012-04-02T00:30:00Z,28.6620,-89.5510,41.0,1.0,190.0,99.0,'11111222,11111222,11144222' 
ADCP,ioos:station:NOAA.NDBC:WDEL1:1,2012-04-02T01:30:00Z,28.6620,-89.5510,41.0,0.8,225.0,99.0,'11111222,11111222,11144222' 
ADCP,ioos:station:NOAA.NDBC:WDEL1:1,2012-04-02T02:30:00Z,28.6620,-89.5510,41.0,1.0,174.0,99.0,'11111222,11111222,11144222' 
ADCP,ioos:station:NOAA.NDBC:WDEL1:1,2012-04-02T03:30:00Z,28.6620,-89.5510,41.0,0.9,79.0,99.0,'11111222,11111222,11144222' 
ADCP,ioos:station:NOAA.NDBC:WDEL1:1,2012-04-02T04:30:00Z,28.6620,-89.5510,41.0,1.1,159.0,99.0,'11111222,11111222,11144222' 
ADCP,ioos:station:NOAA.NDBC:WDEL1:1,2012-04-02T05:30:00Z,28.6620,-89.5510,41.0,0.8,182.0,99.0,'11111222,11111222,11144222' 
ADCP,ioos:station:NOAA.NDBC:WDEL1:1,2012-04-02T06:30:00Z,28.6620,-89.5510,41.0,0.8,79.0,99.0,'11111222,11111222,11144222' 
ADCP,ioos:station:NOAA.NDBC:WDEL1:1,2012-04-02T07:30:00Z,28.6620,-89.5510,41.0,1.0,37.0,99.0,'11111222,11111222,11144222' 
ADCP,ioos:station:NOAA.NDBC:WDEL1:1,2012-04-02T08:30:00Z,28.6620,-89.5510,41.0,1.4,181.0,99.0,'11111222,11111222,11144222' 
ADCP,ioos:station:NOAA.NDBC:WDEL1:1,2012-04-02T09:30:00Z,28.6620,-89.5510,41.0,2.7,159.0,99.0,'11111222,11111222,11144222' 
ADCP,ioos:station:NOAA.NDBC:WDEL1:1,2012-04-02T10:30:00Z,28.6620,-89.5510,41.0,0.7,23.0,99.0,'11111222,11111222,11144222' 
ADCP,ioos:station:NOAA.NDBC:WDEL1:1,2012-04-02T11:30:00Z,28.6620,-89.5510,41.0,0.5,333.0,99.0,'11111222,11111222,11144222' 
ADCP,ioos:station:NOAA.NDBC:WDEL1:1,2012-04-02T12:30:00Z,28.6620,-89.5510,41.0,0.7,198.0,99.0,'11111222,11111222,11144222' 
ADCP,ioos:station:NOAA.NDBC:WDEL1:1,2012-04-02T13:30:00Z,28.6620,-89.5510,41.0,2.2,157.0,99.0,'11111222,11111222,11144222' 
ADCP,ioos:station:NOAA.NDBC:WDEL1:1,2012-04-02T14:30:00Z,28.6620,-89.5510,41.0,2.1,159.0,99.0,'11111222,11111222,11144222' 
ADCP,ioos:station:NOAA.NDBC:WDEL1:1,2012-04-02T15:30:00Z,28.6620,-89.5510,41.0,3.3,161.0,99.0,'11111222,11111222,11144222' 
ADCP,ioos:station:NOAA.NDBC:WDEL1:1,2012-04-02T16:30:00Z,28.6620,-89.5510,41.0,3.3,157.0,99.0,'11111222,11111222,11144222' 
ADCP,ioos:station:NOAA.NDBC:WDEL1:1,2012-04-02T17:30:00Z,28.6620,-89.5510,41.0,1.6,160.0,99.0,'11111222,11111222,11144222' 
ADCP,ioos:station:NOAA.NDBC:WDEL1:1,2012-04-02T18:30:00Z,28.6620,-89.5510,41.0,2.4,160.0,99.0,'11111222,11111222,11144222' 
ADCP,ioos:station:NOAA.NDBC:WDEL1:1,2012-04-02T19:30:00Z,28.6620,-89.5510,41.0,2.6,158.0,99.0,'11111222,11111222,11144222' 
ADCP,ioos:station:NOAA.NDBC:WDEL1:1,2012-04-02T20:30:00Z,28.6620,-89.5510,41.0,3.1,156.0,99.0,'11111222,11111222,11144222' 
ADCP,ioos:station:NOAA.NDBC:WDEL1:1,2012-04-02T21:30:00Z,28.6620,-89.5510,41.0,2.6,162.0,99.0,'11111222,11111222,11144222' 
ADCP,ioos:station:NOAA.NDBC:WDEL1:1,2012-04-02T22:30:00Z,28.6620,-89.5510,41.0,2.7,161.0,99.0,'11111222,11111222,11144222' 
ADCP,ioos:station:NOAA.NDBC:WDEL1:1,2012-04-02T23:30:00Z,28.6620,-89.5510,41.0,2.4,164.0,99.0,'11111222,11111222,11144222' 
ADCP,ioos:station:NOAA.NDBC:WDEL1:1,2012-04-03T00:30:00Z,28.6620,-89.5510,41.0,2.2,182.0,99.0,'11111222,11111222,11144222' 
ADCP,ioos:station:NOAA.NDBC:WDEL1:1,2012-04-03T01:30:00Z,28.6620,-89.5510,41.0,1.1,128.0,99.0,'11111222,11111222,11144222' 
ADCP,ioos:station:NOAA.NDBC:WDEL1:1,2012-04-03T02:30:00Z,28.6620,-89.5510,41.0,2.0,107.0,99.0,'11111222,11111222,11144222' 
ADCP,ioos:station:NOAA.NDBC:WDEL1:1,2012-04-03T03:30:00Z,28.6620,-89.5510,41.0,3.6,162.0,99.0,'11111222,11111222,11144222' 
ADCP,ioos:station:NOAA.NDBC:WDEL1:1,2012-04-03T04:30:00Z,28.6620,-89.5510,41.0,3.4,131.0,99.0,'11111222,11111222,11144222' 
ADCP,ioos:station:NOAA.NDBC:WDEL1:1,2012-04-03T05:30:00Z,28.6620,-89.5510,41.0,1.3,61.0,99.0,'11111222,11111222,11144222' 
ADCP,ioos:station:NOAA.NDBC:WDEL1:1,2012-04-03T06:30:00Z,28.6620,-89.5510,41.0,7.0,353.0,99.0,'11111222,11111222,11144222' 
ADCP,ioos:station:NOAA.NDBC:WDEL1:1,2012-04-03T07:30:00Z,28.6620,-89.5510,41.0,5.9,8.0,99.0,'11111222,11111222,11144222' 
ADCP,ioos:station:NOAA.NDBC:WDEL1:1,2012-04-03T08:30:00Z,28.6620,-89.5510,41.0,3.3,63.0,99.0,'11111222,11111222,11144222' 
ADCP,ioos:station:NOAA.NDBC:WDEL1:1,2012-04-03T09:30:00Z,28.6620,-89.5510,41.0,3.1,60.0,99.0,'11111222,11111222,11144222' 
ADCP,ioos:station:NOAA.NDBC:WDEL1:1,2012-04-03T10:30:00Z,28.6620,-89.5510,41.0,2.3,93.0,99.0,'11111222,11111222,11144222' 
ADCP,ioos:station:NOAA.NDBC:WDEL1:1,2012-04-03T11:30:00Z,28.6620,-89.5510,41.0,2.8,104.0,99.0,'11111222,11111222,11144222' 
ADCP,ioos:station:NOAA.NDBC:WDEL1:1,2012-04-03T12:30:00Z,28.6620,-89.5510,41.0,2.7,97.0,99.0,'11111222,11111222,11144222' 
ADCP,ioos:station:NOAA.NDBC:WDEL1:1,2012-04-03T13:30:00Z,28.6620,-89.5510,41.0,2.9,97.0,99.0,'11111222,11111222,11144222' 
ADCP,ioos:station:NOAA.NDBC:WDEL1:1,2012-04-03T14:30:00Z,28.6620,-89.5510,41.0,2.4,101.0,99.0,'11111222,11111222,11144222' 
ADCP,ioos:station:NOAA.NDBC:WDEL1:1,2012-04-03T15:30:00Z,28.6620,-89.5510,41.0,2.4,100.0,99.0,'11111222,11111222,11144222' 
ADCP,ioos:station:NOAA.NDBC:WDEL1:1,2012-04-03T16:30:00Z,28.6620,-89.5510,41.0,1.5,114.0,99.0,'11111222,11111222,11144222' 
ADCP,ioos:station:NOAA.NDBC:WDEL1:1,2012-04-03T17:30:00Z,28.6620,-89.5510,41.0,2.2,119.0,99.0,'11111222,11111222,11144222' 
ADCP,ioos:station:NOAA.NDBC:WDEL1:1,2012-04-03T18:30:00Z,28.6620,-89.5510,41.0,2.0,126.0,99.0,'11111222,11111222,11144222' 
ADCP,ioos:station:NOAA.NDBC:WDEL1:1,2012-04-03T19:30:00Z,28.6620,-89.5510,41.0,2.3,100.0,99.0,'11111222,11111222,11144222' 
ADCP,ioos:station:NOAA.NDBC:WDEL1:1,2012-04-03T20:30:00Z,28.6620,-89.5510,41.0,1.7,136.0,99.0,'11111222,11111222,11144222' 
ADCP,ioos:station:NOAA.NDBC:WDEL1:1,2012-04-03T21:30:00Z,28.6620,-89.5510,41.0,1.9,122.0,99.0,'11111222,11111222,11144222' 
ADCP,ioos:station:NOAA.NDBC:WDEL1:1,2012-04-03T22:30:00Z,28.6620,-89.5510,41.0,1.5,130.0,99.0,'11111222,11111222,11144222' 
ADCP,ioos:station:NOAA.NDBC:WDEL1:1,2012-04-03T23:30:00Z,28.6620,-89.5510,41.0,1.3,156.0,99.0,'11111222,11111222,11144222' 
ADCP,ioos:station:NOAA.NDBC:WDEL1:1,2012-04-04T00:30:00Z,28.6620,-89.5510,41.0,1.6,141.0,99.0,'11111222,11111222,11144222' 
ADCP,ioos:station:NOAA.NDBC:WDEL1:1,2012-04-04T01:30:00Z,28.6620,-89.5510,41.0,1.7,157.0,99.0,'11111222,11111222,11144222' 
ADCP,ioos:station:NOAA.NDBC:WDEL1:1,2012-04-04T02:30:00Z,28.6620,-89.5510,41.0,1.6,141.0,99.0,'11111222,11111222,11144222' 
ADCP,ioos:station:NOAA.NDBC:WDEL1:1,2012-04-04T03:30:00Z,28.6620,-89.5510,41.0,1.6,117.0,99.0,'11111222,11111222,11144222' 
ADCP,ioos:station:NOAA.NDBC:WDEL1:1,2012-04-04T04:30:00Z,28.6620,-89.5510,41.0,2.6,129.0,99.0,'11111222,11111222,11144222' 
ADCP,ioos:station:NOAA.NDBC:WDEL1:1,2012-04-04T05:30:00Z,28.6620,-89.5510,41.0,2.1,132.0,99.0,'11111222,11111222,11144222' 
ADCP,ioos:station:NOAA.NDBC:WDEL1:1,2012-04-04T06:30:00Z,28.6620,-89.5510,41.0,2.8,159.0,99.0,'11111222,11111222,11144222' 
ADCP,ioos:station:NOAA.NDBC:WDEL1:1,2012-04-04T07:30:00Z,28.6620,-89.5510,41.0,1.2,184.0,99.0,'11111222,11111222,11144222' 
ADCP,ioos:station:NOAA.NDBC:WDEL1:1,2012-04-04T08:30:00Z,28.6620,-89.5510,41.0,2.5,158.0,99.0,'11111222,11111222,11144222' 
ADCP,ioos:station:NOAA.NDBC:WDEL1:1,2012-04-04T09:30:00Z,28.6620,-89.5510,41.0,2.8,160.0,99.0,'11111222,11111222,11144222' 
ADCP,ioos:station:NOAA.NDBC:WDEL1:1,2012-04-04T10:30:00Z,28.6620,-89.5510,41.0,2.3,164.0,99.0,'11111222,11111222,11144222' 
ADCP,ioos:station:NOAA.NDBC:WDEL1:1,2012-04-04T11:30:00Z,28.6620,-89.5510,41.0,2.1,161.0,99.0,'11111222,11111222,11144222' 
ADCP,ioos:station:NOAA.NDBC:WDEL1:1,2012-04-04T12:30:00Z,28.6620,-89.5510,41.0,5.8,55.0,99.0,'11111222,11111222,11144222' 
ADCP,ioos:station:NOAA.NDBC:WDEL1:1,2012-04-04T13:30:00Z,28.6620,-89.5510,41.0,4.8,61.0,99.0,'11111222,11111222,11144222' 
ADCP,ioos:station:NOAA.NDBC:WDEL1:1,2012-04-04T14:30:00Z,28.6620,-89.5510,41.0,8.1,6.0,99.0,'11111222,11111222,11144222' 
ADCP,ioos:station:NOAA.NDBC:WDEL1:1,2012-04-04T15:30:00Z,28.6620,-89.5510,41.0,6.3,8.0,99.0,'11111222,11111222,11144222' 
ADCP,ioos:station:NOAA.NDBC:WDEL1:1,2012-04-04T16:30:00Z,28.6620,-89.5510,41.0,6.3,62.0,99.0,'11111222,11111222,11144222' 
ADCP,ioos:station:NOAA.NDBC:WDEL1:1,2012-04-04T17:30:00Z,28.6620,-89.5510,41.0,4.0,74.0,99.0,'11111222,11111222,11144222' 
ADCP,ioos:station:NOAA.NDBC:WDEL1:1,2012-04-04T18:30:00Z,28.6620,-89.5510,41.0,1.7,44.0,99.0,'11111222,11111222,11144222' 
ADCP,ioos:station:NOAA.NDBC:WDEL1:1,2012-04-04T19:30:00Z,28.6620,-89.5510,41.0,2.7,284.0,99.0,'11111222,11111222,11144222' 
ADCP,ioos:station:NOAA.NDBC:WDEL1:1,2012-04-04T20:30:00Z,28.6620,-89.5510,41.0,4.2,247.0,99.0,'11111222,11111222,11144222' 
ADCP,ioos:station:NOAA.NDBC:WDEL1:1,2012-04-04T21:30:00Z,28.6620,-89.5510,41.0,1.0,353.0,99.0,'11111222,11111222,11144222' 
ADCP,ioos:station:NOAA.NDBC:WDEL1:1,2012-04-04T22:30:00Z,28.6620,-89.5510,41.0,0.8,357.0,99.0,'11111222,11111222,11144222' 
ADCP,ioos:station:NOAA.NDBC:WDEL1:1,2012-04-04T23:30:00Z,28.6620,-89.5510,41.0,2.1,223.0,99.0,'11111222,11111222,11144222' 
ADCP,ioos:station:NOAA.NDBC:WDEL1:1,2012-04-05T00:30:00Z,28.6620,-89.5510,41.0,2.7,238.0,99.0,'11111222,11111222,11144222' 
ADCP,ioos:station:NOAA.NDBC:WDEL1:1,2012-04-05T01:30:00Z,28.6620,-89.5510,41.0,2.2,216.0,99.0,'11111222,11111222,11144222' 
ADCP,ioos:station:NOAA.NDBC:WDEL1:1,2012-04-05T02:30:00Z,28.6620,-89.5510,41.0,2.0,232.0,99.0,'11111222,11111222,11144222' 
ADCP,ioos:station:NOAA.NDBC:WDEL1:1,2012-04-05T03:30:00Z,28.6620,-89.5510,41.0,2.2,229.0,99.0,'11111222,11111222,11144222' 
ADCP,ioos:station:NOAA.NDBC:WDEL1:1,2012-04-05T04:30:00Z,28.6620,-89.5510,41.0,2.7,242.0,99.0,'11111222,11111222,11144222' 
ADCP,ioos:station:NOAA.NDBC:WDEL1:1,2012-04-05T05:30:00Z,28.6620,-89.5510,41.0,2.3,234.0,99.0,'11111222,11111222,11144222' 
ADCP,ioos:station:NOAA.NDBC:WDEL1:1,2012-04-05T06:30:00Z,28.6620,-89.5510,41.0,1.4,257.0,99.0,'11111222,11111222,11144222' 
ADCP,ioos:station:NOAA.NDBC:WDEL1:1,2012-04-05T07:30:00Z,28.6620,-89.5510,41.0,0.5,291.0,99.0,'11111222,11111222,11144222' 
ADCP,ioos:station:NOAA.NDBC:WDEL1:1,2012-04-05T08:30:00Z,28.6620,-89.5510,41.0,2.6,215.0,99.0,'11111222,11111222,11144222' 
ADCP,ioos:station:NOAA.NDBC:WDEL1:1,2012-04-05T09:30:00Z,28.6620,-89.5510,41.0,1.1,219.0,99.0,'11111222,11111222,11144222' 
ADCP,ioos:station:NOAA.NDBC:WDEL1:1,2012-04-05T10:30:00Z,28.6620,-89.5510,41.0,0.8,280.0,99.0,'11111222,11111222,11144222' 
ADCP,ioos:station:NOAA.NDBC:WDEL1:1,2012-04-05T11:30:00Z,28.6620,-89.5510,41.0,1.0,346.0,99.0,'11111222,11111222,11144222' 
ADCP,ioos:station:NOAA.NDBC:WDEL1:1,2012-04-05T12:30:00Z,28.6620,-89.5510,41.0,2.1,253.0,99.0,'11111222,11111222,11144222' 
ADCP,ioos:station:NOAA.NDBC:WDEL1:1,2012-04-05T13:30:00Z,28.6620,-89.5510,41.0,1.0,24.0,99.0,'11111222,11111222,11144222' 
ADCP,ioos:station:NOAA.NDBC:WDEL1:1,2012-04-05T14:30:00Z,28.6620,-89.5510,41.0,5.0,350.0,99.0,'11111222,11111222,11144222' 
ADCP,ioos:station:NOAA.NDBC:WDEL1:1,2012-04-05T15:30:00Z,28.6620,-89.5510,41.0,3.2,67.0,99.0,'11111222,11111222,11144222' 
ADCP,ioos:station:NOAA.NDBC:WDEL1:1,2012-04-05T16:30:00Z,28.6620,-89.5510,41.0,1.3,23.0,99.0,'11111222,11111222,11144222' 
ADCP,ioos:station:NOAA.NDBC:WDEL1:1,2012-04-05T17:30:00Z,28.6620,-89.5510,41.0,0.9,102.0,99.0,'11111222,11111222,11144222' 
ADCP,ioos:station:NOAA.NDBC:WDEL1:1,2012-04-05T18:30:00Z,28.6620,-89.5510,41.0,0.9,155.0,99.0,'11111222,11111222,11144222' 
ADCP,ioos:station:NOAA.NDBC:WDEL1:1,2012-04-05T19:30:00Z,28.6620,-89.5510,41.0,1.1,216.0,99.0,'11111222,11111222,11144222' 
ADCP,ioos:station:NOAA.NDBC:WDEL1:1,2012-04-05T20:30:00Z,28.6620,-89.5510,41.0,2.0,216.0,99.0,'11111222,11111222,11144222' 
ADCP,ioos:station:NOAA.NDBC:WDEL1:1,2012-04-05T21:30:00Z,28.6620,-89.5510,41.0,2.0,220.0,99.0,'11111222,11111222,11144222' 
ADCP,ioos:station:NOAA.NDBC:WDEL1:1,2012-04-05T22:30:00Z,28.6620,-89.5510,41.0,1.9,233.0,99.0,'11111222,11111222,11144222' 
ADCP,ioos:station:NOAA.NDBC:WDEL1:1,2012-04-05T23:30:00Z,28.6620,-89.5510,41.0,2.3,240.0,99.0,'11111222,11111222,11144222' 
ADCP,ioos:station:NOAA.NDBC:WDEL1:1,2012-04-06T00:30:00Z,28.6620,-89.5510,41.0,3.3,240.0,99.0,'11111222,11111222,11144222' 
ADCP,ioos:station:NOAA.NDBC:WDEL1:1,2012-04-06T01:30:00Z,28.6620,-89.5510,41.0,2.8,236.0,99.0,'11111222,11111222,11144222' 
ADCP,ioos:station:NOAA.NDBC:WDEL1:1,2012-04-06T02:30:00Z,28.6620,-89.5510,41.0,3.0,239.0,99.0,'11111222,11111222,11144222' 
ADCP,ioos:station:NOAA.NDBC:WDEL1:1,2012-04-06T03:30:00Z,28.6620,-89.5510,41.0,2.2,257.0,99.0,'11111222,11111222,11144222' 
ADCP,ioos:station:NOAA.NDBC:WDEL1:1,2012-04-06T04:30:00Z,28.6620,-89.5510,41.0,2.1,256.0,99.0,'11111222,11111222,11144222' 
ADCP,ioos:station:NOAA.NDBC:WDEL1:1,2012-04-06T05:30:00Z,28.6620,-89.5510,41.0,2.0,268.0,99.0,'11111222,11111222,11144222' 
ADCP,ioos:station:NOAA.NDBC:WDEL1:1,2012-04-06T06:30:00Z,28.6620,-89.5510,41.0,2.4,345.0,99.0,'11111222,11111222,11144222' 
ADCP,ioos:station:NOAA.NDBC:WDEL1:1,2012-04-06T07:30:00Z,28.6620,-89.5510,41.0,4.3,7.0,99.0,'11111222,11111222,11144222' 
ADCP,ioos:station:NOAA.NDBC:WDEL1:1,2012-04-06T08:30:00Z,28.6620,-89.5510,41.0,3.0,12.0,99.0,'11111222,11111222,11144222' 
ADCP,ioos:station:NOAA.NDBC:WDEL1:1,2012-04-06T09:30:00Z,28.6620,-89.5510,41.0,3.2,10.0,99.0,'11111222,11111222,11144222' 
ADCP,ioos:station:NOAA.NDBC:WDEL1:1,2012-04-06T10:30:00Z,28.6620,-89.5510,41.0,3.1,6.0,99.0,'11111222,11111222,11144222' 
ADCP,ioos:station:NOAA.NDBC:WDEL1:1,2012-04-06T11:30:00Z,28.6620,-89.5510,41.0,3.5,8.0,99.0,'11111222,11111222,11144222' 
ADCP,ioos:station:NOAA.NDBC:WDEL1:1,2012-04-06T12:30:00Z,28.6620,-89.5510,41.0,4.0,8.0,99.0,'11111222,11111222,11144222' 
ADCP,ioos:station:NOAA.NDBC:WDEL1:1,2012-04-06T13:30:00Z,28.6620,-89.5510,41.0,3.3,7.0,99.0,'11111222,11111222,11144222' 
ADCP,ioos:station:NOAA.NDBC:WDEL1:1,2012-04-06T14:30:00Z,28.6620,-89.5510,41.0,2.8,2.0,99.0,'11111222,11111222,11144222' 
ADCP,ioos:station:NOAA.NDBC:WDEL1:1,2012-04-06T15:30:00Z,28.6620,-89.5510,41.0,2.8,2.0,99.0,'11111222,11111222,11144222' 
ADCP,ioos:station:NOAA.NDBC:WDEL1:1,2012-04-06T16:30:00Z,28.6620,-89.5510,41.0,2.6,2.0,99.0,'11111222,11111222,11144222' 
ADCP,ioos:station:NOAA.NDBC:WDEL1:1,2012-04-06T17:30:00Z,28.6620,-89.5510,41.0,2.0,10.0,99.0,'11111222,11111222,11144222' 
ADCP,ioos:station:NOAA.NDBC:WDEL1:1,2012-04-06T18:30:00Z,28.6620,-89.5510,41.0,2.4,7.0,99.0,'11111222,11111222,11144222' 
ADCP,ioos:station:NOAA.NDBC:WDEL1:1,2012-04-06T19:30:00Z,28.6620,-89.5510,41.0,2.6,14.0,99.0,'11111222,11111222,11144222' 
ADCP,ioos:station:NOAA.NDBC:WDEL1:1,2012-04-06T20:30:00Z,28.6620,-89.5510,41.0,2.4,13.0,99.0,'11111222,11111222,11144222' 
ADCP,ioos:station:NOAA.NDBC:WDEL1:1,2012-04-06T21:30:00Z,28.6620,-89.5510,41.0,1.1,1.0,99.0,'11111222,11111222,11144222' 
ADCP,ioos:station:NOAA.NDBC:WDEL1:1,2012-04-06T22:30:00Z,28.6620,-89.5510,41.0,1.5,356.0,99.0,'11111222,11111222,11144222' 
ADCP,ioos:station:NOAA.NDBC:WDEL1:1,2012-04-06T23:30:00Z,28.6620,-89.5510,41.0,0.5,347.0,99.0,'11111222,11111222,11144222' 
ADCP,ioos:station:NOAA.NDBC:WDEL1:1,2012-04-07T00:30:00Z,28.6620,-89.5510,41.0,0.4,347.0,99.0,'11111222,11111222,11144222' 
ADCP,ioos:station:NOAA.NDBC:WDEL1:1,2012-04-07T01:30:00Z,28.6620,-89.5510,41.0,0.7,47.0,99.0,'11111222,11111222,11144222' 
ADCP,ioos:station:NOAA.NDBC:WDEL1:1,2012-04-07T02:30:00Z,28.6620,-89.5510,41.0,1.3,55.0,99.0,'11111222,11111222,11144222' 
ADCP,ioos:station:NOAA.NDBC:WDEL1:1,2012-04-07T03:30:00Z,28.6620,-89.5510,41.0,0.5,64.0,99.0,'11111222,11111222,11144222' 
ADCP,ioos:station:NOAA.NDBC:WDEL1:1,2012-04-07T04:30:00Z,28.6620,-89.5510,41.0,2.3,64.0,99.0,'11111222,11111222,11144222' 
ADCP,ioos:station:NOAA.NDBC:WDEL1:1,2012-04-07T05:30:00Z,28.6620,-89.5510,41.0,1.8,54.0,99.0,'11111222,11111222,11144222' 
ADCP,ioos:station:NOAA.NDBC:WDEL1:1,2012-04-07T06:30:00Z,28.6620,-89.5510,41.0,2.6,68.0,99.0,'11111222,11111222,11144222' 
ADCP,ioos:station:NOAA.NDBC:WDEL1:1,2012-04-07T07:30:00Z,28.6620,-89.5510,41.0,1.7,60.0,99.0,'11111222,11111222,11144222' 
ADCP,ioos:station:NOAA.NDBC:WDEL1:1,2012-04-07T08:30:00Z,28.6620,-89.5510,41.0,1.6,56.0,99.0,'11111222,11111222,11144222' 
ADCP,ioos:station:NOAA.NDBC:WDEL1:1,2012-04-07T09:30:00Z,28.6620,-89.5510,41.0,2.8,58.0,99.0,'11111222,11111222,11144222' 
ADCP,ioos:station:NOAA.NDBC:WDEL1:1,2012-04-07T10:30:00Z,28.6620,-89.5510,41.0,3.2,60.0,99.0,'11111222,11111222,11144222' 
ADCP,ioos:station:NOAA.NDBC:WDEL1:1,2012-04-07T11:30:00Z,28.6620,-89.5510,41.0,3.1,58.0,99.0,'11111222,11111222,11144222' 
ADCP,ioos:station:NOAA.NDBC:WDEL1:1,2012-04-07T12:30:00Z,28.6620,-89.5510,41.0,3.1,53.0,99.0,'11111222,11111222,11144222' 
ADCP,ioos:station:NOAA.NDBC:WDEL1:1,2012-04-07T13:30:00Z,28.6620,-89.5510,41.0,3.2,54.0,99.0,'11111222,11111222,11144222' 
ADCP,ioos:station:NOAA.NDBC:WDEL1:1,2012-04-07T14:30:00Z,28.6620,-89.5510,41.0,3.2,54.0,99.0,'11111222,11111222,11144222' 
ADCP,ioos:station:NOAA.NDBC:WDEL1:1,2012-04-07T15:30:00Z,28.6620,-89.5510,41.0,3.9,55.0,99.0,'11111222,11111222,11144222' 
ADCP,ioos:station:NOAA.NDBC:WDEL1:1,2012-04-07T16:30:00Z,28.6620,-89.5510,41.0,4.4,70.0,99.0,'11111222,11111222,11144222' 
ADCP,ioos:station:NOAA.NDBC:WDEL1:1,2012-04-07T17:30:00Z,28.6620,-89.5510,41.0,3.8,73.0,99.0,'11111222,11111222,11144222' 
ADCP,ioos:station:NOAA.NDBC:WDEL1:1,2012-04-07T18:30:00Z,28.6620,-89.5510,41.0,2.4,74.0,99.0,'11111222,11111222,11144222' 
ADCP,ioos:station:NOAA.NDBC:WDEL1:1,2012-04-07T19:30:00Z,28.6620,-89.5510,41.0,3.0,62.0,99.0,'11111222,11111222,11144222' 
ADCP,ioos:station:NOAA.NDBC:WDEL1:1,2012-04-07T20:30:00Z,28.6620,-89.5510,41.0,2.7,70.0,99.0,'11111222,11111222,11144222' 
ADCP,ioos:station:NOAA.NDBC:WDEL1:1,2012-04-07T21:30:00Z,28.6620,-89.5510,41.0,1.8,91.0,99.0,'11111222,11111222,11144222' 
ADCP,ioos:station:NOAA.NDBC:WDEL1:1,2012-04-07T22:30:00Z,28.6620,-89.5510,41.0,3.4,65.0,99.0,'11111222,11111222,11144222' 
ADCP,ioos:station:NOAA.NDBC:WDEL1:1,2012-04-07T23:30:00Z,28.6620,-89.5510,41.0,2.3,57.0,99.0,'11111222,11111222,11144222' 
ADCP,ioos:station:NOAA.NDBC:WDEL1:1,2012-04-08T00:30:00Z,28.6620,-89.5510,41.0,1.8,80.0,99.0,'11111222,11111222,11144222' 
ADCP,ioos:station:NOAA.NDBC:WDEL1:1,2012-04-08T01:30:00Z,28.6620,-89.5510,41.0,2.8,61.0,99.0,'11111222,11111222,11144222' 
ADCP,ioos:station:NOAA.NDBC:WDEL1:1,2012-04-08T02:30:00Z,28.6620,-89.5510,41.0,3.0,68.0,99.0,'11111222,11111222,11144222' 
ADCP,ioos:station:NOAA.NDBC:WDEL1:1,2012-04-08T03:30:00Z,28.6620,-89.5510,41.0,3.1,54.0,99.0,'11111222,11111222,11144222' 
ADCP,ioos:station:NOAA.NDBC:WDEL1:1,2012-04-08T04:30:00Z,28.6620,-89.5510,41.0,3.1,61.0,99.0,'11111222,11111222,11144222' 
ADCP,ioos:station:NOAA.NDBC:WDEL1:1,2012-04-08T05:30:00Z,28.6620,-89.5510,41.0,3.2,66.0,99.0,'11111222,11111222,11144222' 
ADCP,ioos:station:NOAA.NDBC:WDEL1:1,2012-04-08T06:30:00Z,28.6620,-89.5510,41.0,3.4,65.0,99.0,'11111222,11111222,11144222' 
ADCP,ioos:station:NOAA.NDBC:WDEL1:1,2012-04-08T07:30:00Z,28.6620,-89.5510,41.0,2.6,77.0,99.0,'11111222,11111222,11144222' 
ADCP,ioos:station:NOAA.NDBC:WDEL1:1,2012-04-08T08:30:00Z,28.6620,-89.5510,41.0,1.6,84.0,99.0,'11111222,11111222,11144222' 
ADCP,ioos:station:NOAA.NDBC:WDEL1:1,2012-04-08T09:30:00Z,28.6620,-89.5510,41.0,2.5,68.0,99.0,'11111222,11111222,11144222' 
ADCP,ioos:station:NOAA.NDBC:WDEL1:1,2012-04-08T10:30:00Z,28.6620,-89.5510,41.0,2.0,54.0,99.0,'11111222,11111222,11144222' 
ADCP,ioos:station:NOAA.NDBC:WDEL1:1,2012-04-08T11:30:00Z,28.6620,-89.5510,41.0,2.5,56.0,99.0,'11111222,11111222,11144222' 
ADCP,ioos:station:NOAA.NDBC:WDEL1:1,2012-04-08T12:30:00Z,28.6620,-89.5510,41.0,2.1,68.0,99.0,'11111222,11111222,11144222' 
ADCP,ioos:station:NOAA.NDBC:WDEL1:1,2012-04-08T13:30:00Z,28.6620,-89.5510,41.0,2.0,59.0,99.0,'11111222,11111222,11144222' 
ADCP,ioos:station:NOAA.NDBC:WDEL1:1,2012-04-08T14:30:00Z,28.6620,-89.5510,41.0,4.4,64.0,99.0,'11111222,11111222,11144222' 
ADCP,ioos:station:NOAA.NDBC:WDEL1:1,2012-04-08T15:30:00Z,28.6620,-89.5510,41.0,3.6,61.0,99.0,'11111222,11111222,11144222' 
ADCP,ioos:station:NOAA.NDBC:WDEL1:1,2012-04-08T16:30:00Z,28.6620,-89.5510,41.0,3.6,57.0,99.0,'11111222,11111222,11144222' 
ADCP,ioos:station:NOAA.NDBC:WDEL1:1,2012-04-08T17:30:00Z,28.6620,-89.5510,41.0,2.6,52.0,99.0,'11111222,11111222,11144222' 
ADCP,ioos:station:NOAA.NDBC:WDEL1:1,2012-04-08T18:30:00Z,28.6620,-89.5510,41.0,4.1,60.0,99.0,'11111222,11111222,11144222' 
ADCP,ioos:station:NOAA.NDBC:WDEL1:1,2012-04-08T19:30:00Z,28.6620,-89.5510,41.0,3.0,52.0,99.0,'11111222,11111222,11144222' 
ADCP,ioos:station:NOAA.NDBC:WDEL1:1,2012-04-08T20:30:00Z,28.6620,-89.5510,41.0,3.0,58.0,99.0,'11111222,11111222,11144222' 
ADCP,ioos:station:NOAA.NDBC:WDEL1:1,2012-04-08T21:30:00Z,28.6620,-89.5510,41.0,2.9,58.0,99.0,'11111222,11111222,11144222' 
ADCP,ioos:station:NOAA.NDBC:WDEL1:1,2012-04-08T22:30:00Z,28.6620,-89.5510,41.0,3.0,58.0,99.0,'11111222,11111222,11144222' 
ADCP,ioos:station:NOAA.NDBC:WDEL1:1,2012-04-08T23:30:00Z,28.6620,-89.5510,41.0,2.1,49.0,99.0,'11111222,11111222,11144222' 
ADCP,ioos:station:NOAA.NDBC:WDEL1:1,2012-04-09T00:30:00Z,28.6620,-89.5510,41.0,2.1,54.0,99.0,'11111222,11111222,11144222' 